FIN1DH EFHK-EDDM

Flight info

Callsign FIN1DH
Flight time 2h 19m
Altitude 40000
Route VALOX DCT DANKA DCT ROSAX DCT LEMSI DCT PIMEX DCT ANFEV DCT PENOR DCT GOVEN DCT KOBUS DCT MAREM DCT BALTU DCT VESUB T106 TUSTO T108 LANDU LANDU2B
Aircraft A359/H-SDE2E3GHIJ1J3J4J5LM1ORWXY/LB1D1

Departure

Time 2026-05-07 08:12
Airport Helsinki Vantaa Airport (EFHK)

Arrival

Time 2026-05-07 10:32
Airport Munich Airport (EDDM)
Time Latitude Longitude Altitude Speed Heading
2026-05-07 07:38 60.31673 24.96027 173 ft 0 kts 137°
2026-05-07 08:02 60.31674 24.96024 173 ft 2 kts 137°
2026-05-07 08:02 60.31689 24.95997 173 ft 3 kts 137°
2026-05-07 08:02 60.31704 24.95969 173 ft 3 kts 137°
2026-05-07 08:03 60.31717 24.95945 173 ft 2 kts 137°
2026-05-07 08:03 60.31728 24.95920 173 ft 3 kts 92°
2026-05-07 08:03 60.31723 24.95891 173 ft 3 kts 47°
2026-05-07 08:03 60.31710 24.95862 173 ft 3 kts 47°
2026-05-07 08:04 60.31696 24.95832 173 ft 3 kts 47°
2026-05-07 08:04 60.31684 24.95806 173 ft 0 kts 47°
2026-05-07 08:07 60.31692 24.95823 173 ft 4 kts 47°
2026-05-07 08:07 60.31720 24.95886 173 ft 7 kts 48°
2026-05-07 08:07 60.31761 24.95977 173 ft 10 kts 47°
2026-05-07 08:08 60.31814 24.96092 173 ft 12 kts 47°
2026-05-07 08:08 60.31882 24.96109 173 ft 11 kts 323°
2026-05-07 08:08 60.31943 24.96007 175 ft 11 kts 319°
2026-05-07 08:08 60.31991 24.95914 179 ft 9 kts 316°
2026-05-07 08:09 60.32041 24.95820 180 ft 11 kts 318°
2026-05-07 08:09 60.32112 24.95691 179 ft 17 kts 317°
2026-05-07 08:09 60.32210 24.95510 180 ft 21 kts 317°
2026-05-07 08:09 60.32321 24.95310 183 ft 23 kts 325°
2026-05-07 08:10 60.32466 24.95184 189 ft 23 kts 339°
2026-05-07 08:10 60.32617 24.95093 200 ft 23 kts 342°
2026-05-07 08:10 60.32777 24.94995 183 ft 26 kts 343°
2026-05-07 08:10 60.32931 24.94847 183 ft 23 kts 316°
2026-05-07 08:11 60.33047 24.94631 201 ft 21 kts 317°
2026-05-07 08:11 60.33119 24.94422 207 ft 16 kts 258°
2026-05-07 08:11 60.33097 24.94353 196 ft 0 kts 229°
2026-05-07 08:11 60.33087 24.94330 196 ft 19 kts 229°
2026-05-07 08:12 60.32821 24.93746 203 ft 92 kts 227°
2026-05-07 08:12 60.32241 24.92471 174 ft 152 kts 227°
2026-05-07 08:12 60.31488 24.90784 693 ft 159 kts 228°
2026-05-07 08:12 60.30774 24.89118 1461 ft 163 kts 227°
2026-05-07 08:13 60.30047 24.87076 1745 ft 192 kts 236°
2026-05-07 08:13 60.29265 24.84615 2022 ft 223 kts 234°
2026-05-07 08:13 60.28356 24.81877 2557 ft 245 kts 234°
2026-05-07 08:13 60.27386 24.78967 3340 ft 252 kts 235°
2026-05-07 08:14 60.26529 24.75818 4093 ft 261 kts 245°
2026-05-07 08:14 60.25837 24.72398 4925 ft 266 kts 248°
2026-05-07 08:14 60.25164 24.68904 5829 ft 268 kts 248°
2026-05-07 08:14 60.24456 24.65425 6716 ft 270 kts 244°
2026-05-07 08:15 60.23383 24.62351 7635 ft 270 kts 224°
2026-05-07 08:15 60.21833 24.60210 8528 ft 273 kts 207°
2026-05-07 08:15 60.20115 24.58527 9427 ft 277 kts 206°
2026-05-07 08:15 60.18362 24.56880 10314 ft 279 kts 206°
2026-05-07 08:16 60.16556 24.55168 10830 ft 298 kts 207°
2026-05-07 08:16 60.14621 24.53316 11216 ft 318 kts 207°
2026-05-07 08:16 60.12584 24.51359 11778 ft 330 kts 207°
2026-05-07 08:16 60.10497 24.49355 12595 ft 334 kts 207°
2026-05-07 08:17 60.08388 24.47331 13446 ft 338 kts 207°
2026-05-07 08:17 60.06260 24.45288 14252 ft 341 kts 207°
2026-05-07 08:17 60.04114 24.43234 15025 ft 343 kts 208°
2026-05-07 08:17 60.01954 24.41167 15830 ft 345 kts 208°
2026-05-07 08:18 59.99777 24.39086 16667 ft 348 kts 208°
2026-05-07 08:18 59.97587 24.36995 17506 ft 350 kts 208°
2026-05-07 08:18 59.95381 24.34891 18296 ft 353 kts 208°
2026-05-07 08:18 59.93158 24.32776 18999 ft 355 kts 208°
2026-05-07 08:19 59.90925 24.30654 19720 ft 356 kts 209°
2026-05-07 08:19 59.88686 24.28529 20435 ft 358 kts 209°
2026-05-07 08:19 59.86430 24.26392 21160 ft 359 kts 209°
2026-05-07 08:19 59.84168 24.24252 21879 ft 361 kts 209°
2026-05-07 08:20 59.81921 24.22130 22575 ft 363 kts 210°
2026-05-07 08:20 59.79605 24.19945 23267 ft 365 kts 210°
2026-05-07 08:20 59.77303 24.17776 23885 ft 367 kts 210°
2026-05-07 08:20 59.74985 24.15595 24424 ft 370 kts 210°
2026-05-07 08:21 59.72751 24.13220 24940 ft 370 kts 215°
2026-05-07 08:21 59.70584 24.10440 25468 ft 372 kts 217°
2026-05-07 08:21 59.68461 24.07489 25928 ft 375 kts 218°
2026-05-07 08:21 59.66345 24.04445 26418 ft 378 kts 219°
2026-05-07 08:22 59.64214 24.01355 26939 ft 381 kts 219°
2026-05-07 08:22 59.62067 23.98260 27465 ft 383 kts 218°
2026-05-07 08:22 59.59898 23.95161 27982 ft 386 kts 218°
2026-05-07 08:22 59.57707 23.92062 28474 ft 389 kts 218°
2026-05-07 08:23 59.55497 23.88949 28967 ft 392 kts 218°
2026-05-07 08:23 59.53269 23.85819 29428 ft 395 kts 218°
2026-05-07 08:23 59.51023 23.82671 29889 ft 398 kts 218°
2026-05-07 08:23 59.48783 23.79441 30297 ft 399 kts 220°
2026-05-07 08:24 59.46716 23.75782 30674 ft 401 kts 226°
2026-05-07 08:24 59.44770 23.71852 31047 ft 403 kts 227°
2026-05-07 08:24 59.42852 23.67824 31423 ft 405 kts 229°
2026-05-07 08:24 59.40942 23.63732 31781 ft 407 kts 229°
2026-05-07 08:25 59.39031 23.59615 32146 ft 409 kts 229°
2026-05-07 08:25 59.37108 23.55478 32495 ft 412 kts 229°
2026-05-07 08:25 59.35168 23.51323 32837 ft 414 kts 229°
2026-05-07 08:25 59.33215 23.47159 33148 ft 416 kts 229°
2026-05-07 08:26 59.29267 23.38792 33750 ft 420 kts 229°
2026-05-07 08:26 59.27276 23.34592 34026 ft 423 kts 229°
2026-05-07 08:26 59.25270 23.30367 34261 ft 425 kts 229°
2026-05-07 08:27 59.23252 23.26128 34400 ft 428 kts 229°
2026-05-07 08:27 59.21216 23.21855 34557 ft 431 kts 229°
2026-05-07 08:27 59.19165 23.17561 34752 ft 433 kts 229°
2026-05-07 08:27 59.17109 23.13263 35042 ft 433 kts 229°
2026-05-07 08:28 59.15050 23.08969 35312 ft 434 kts 229°
2026-05-07 08:28 59.12986 23.04671 35562 ft 435 kts 229°
2026-05-07 08:28 59.10920 23.00377 35794 ft 435 kts 229°
2026-05-07 08:28 59.08849 22.96079 36020 ft 436 kts 229°
2026-05-07 08:29 59.06769 22.91772 36263 ft 437 kts 229°
2026-05-07 08:29 59.05390 22.88919 36463 ft 437 kts 229°
2026-05-07 08:29 59.03306 22.84619 36700 ft 438 kts 228°
2026-05-07 08:29 59.01218 22.80316 36898 ft 439 kts 228°
2026-05-07 08:30 58.99124 22.75998 37082 ft 440 kts 228°
2026-05-07 08:30 58.97023 22.71681 37306 ft 440 kts 228°
2026-05-07 08:30 58.94915 22.67366 37528 ft 441 kts 228°
2026-05-07 08:30 58.92807 22.63059 37740 ft 441 kts 228°
2026-05-07 08:31 58.90690 22.58741 37941 ft 442 kts 228°
2026-05-07 08:31 58.88573 22.54431 38130 ft 443 kts 228°
2026-05-07 08:31 58.86448 22.50110 38322 ft 443 kts 228°
2026-05-07 08:31 58.84320 22.45791 38509 ft 444 kts 228°
2026-05-07 08:32 58.82190 22.41477 38693 ft 444 kts 228°
2026-05-07 08:32 58.80055 22.37160 38827 ft 445 kts 228°
2026-05-07 08:32 58.77915 22.32842 38962 ft 445 kts 228°
2026-05-07 08:32 58.75774 22.28530 39104 ft 446 kts 228°
2026-05-07 08:33 58.73627 22.24214 39226 ft 446 kts 228°
2026-05-07 08:33 58.71478 22.19902 39375 ft 447 kts 228°
2026-05-07 08:33 58.69326 22.15592 39501 ft 447 kts 227°
2026-05-07 08:33 58.67171 22.11284 39629 ft 447 kts 227°
2026-05-07 08:34 58.65014 22.06980 39758 ft 448 kts 227°
2026-05-07 08:34 58.62849 22.02669 39863 ft 448 kts 227°
2026-05-07 08:34 58.60687 21.98372 39996 ft 449 kts 227°
2026-05-07 08:34 58.58513 21.94061 40025 ft 450 kts 227°
2026-05-07 08:35 58.54164 21.85458 40031 ft 449 kts 227°
2026-05-07 08:35 58.49814 21.76886 40031 ft 449 kts 227°
2026-05-07 08:36 58.45455 21.68330 40031 ft 449 kts 227°
2026-05-07 08:36 58.41091 21.59794 40036 ft 449 kts 227°
2026-05-07 08:37 58.36749 21.51334 40034 ft 449 kts 227°
2026-05-07 08:37 58.32370 21.42836 40031 ft 450 kts 227°
2026-05-07 08:38 58.27989 21.34363 40031 ft 449 kts 227°
2026-05-07 08:38 58.23599 21.25906 40031 ft 449 kts 227°
2026-05-07 08:39 58.19186 21.17495 40031 ft 450 kts 226°
2026-05-07 08:39 58.14631 21.09369 40034 ft 450 kts 224°
2026-05-07 08:40 58.10041 21.01330 40036 ft 450 kts 224°
2026-05-07 08:40 58.05459 20.93267 40034 ft 450 kts 225°
2026-05-07 08:41 58.00888 20.85199 40033 ft 450 kts 225°
2026-05-07 08:41 57.96316 20.77144 40030 ft 450 kts 225°
2026-05-07 08:42 57.91742 20.69118 40031 ft 450 kts 225°
2026-05-07 08:42 57.87159 20.61106 40029 ft 450 kts 224°
2026-05-07 08:43 57.82601 20.53171 40033 ft 450 kts 224°
2026-05-07 08:43 57.78007 20.45200 40031 ft 450 kts 224°
2026-05-07 08:44 57.73403 20.37240 40038 ft 450 kts 224°
2026-05-07 08:44 57.68793 20.29299 40030 ft 451 kts 224°
2026-05-07 08:45 57.64174 20.21372 40027 ft 451 kts 224°
2026-05-07 08:45 57.59548 20.13462 40038 ft 451 kts 224°
2026-05-07 08:46 57.54918 20.05573 40036 ft 451 kts 224°
2026-05-07 08:46 57.50281 19.97701 40032 ft 451 kts 224°
2026-05-07 08:47 57.45641 19.89851 40033 ft 451 kts 224°
2026-05-07 08:47 57.40994 19.82019 40024 ft 451 kts 224°
2026-05-07 08:48 57.36349 19.74216 40027 ft 451 kts 224°
2026-05-07 08:48 57.31699 19.66435 40032 ft 451 kts 223°
2026-05-07 08:49 57.27044 19.58672 40029 ft 451 kts 223°
2026-05-07 08:49 57.22384 19.50928 40046 ft 451 kts 223°
2026-05-07 08:50 57.17719 19.43203 40033 ft 451 kts 223°
2026-05-07 08:50 57.13049 19.35498 40030 ft 451 kts 223°
2026-05-07 08:51 57.08407 19.27866 40043 ft 451 kts 223°
2026-05-07 08:51 57.03696 19.20147 40056 ft 451 kts 223°
2026-05-07 08:52 56.99037 19.12541 40025 ft 452 kts 223°
2026-05-07 08:52 56.94330 19.04882 40033 ft 453 kts 223°
2026-05-07 08:53 56.89615 18.97238 40033 ft 453 kts 223°
2026-05-07 08:53 56.84893 18.89610 40033 ft 453 kts 223°
2026-05-07 08:54 56.80167 18.82001 40034 ft 453 kts 223°
2026-05-07 08:54 56.75438 18.74415 40037 ft 453 kts 223°
2026-05-07 08:55 56.70708 18.66854 40037 ft 452 kts 222°
2026-05-07 08:55 56.65978 18.59318 40038 ft 452 kts 222°
2026-05-07 08:56 56.61238 18.51793 40035 ft 452 kts 222°
2026-05-07 08:56 56.56496 18.44290 40035 ft 452 kts 222°
2026-05-07 08:57 56.51746 18.36801 40034 ft 452 kts 222°
2026-05-07 08:57 56.46997 18.29340 40041 ft 452 kts 222°
2026-05-07 08:58 56.42240 18.21891 40038 ft 452 kts 222°
2026-05-07 08:58 56.37482 18.14467 40035 ft 452 kts 222°
2026-05-07 08:59 56.32719 18.07060 40037 ft 452 kts 222°
2026-05-07 08:59 56.27940 17.99653 40031 ft 454 kts 221°
2026-05-07 09:00 56.23148 17.92251 40033 ft 454 kts 221°
2026-05-07 09:00 56.18343 17.84857 40042 ft 454 kts 221°
2026-05-07 09:01 56.13538 17.77486 40039 ft 454 kts 221°
2026-05-07 09:01 56.08731 17.70137 40027 ft 455 kts 221°
2026-05-07 09:02 56.03947 17.62848 40034 ft 454 kts 221°
2026-05-07 09:02 55.99128 17.55532 40034 ft 454 kts 221°
2026-05-07 09:03 55.94308 17.48237 40034 ft 454 kts 221°
2026-05-07 09:03 55.89481 17.40958 40039 ft 454 kts 221°
2026-05-07 09:04 55.84651 17.33698 40037 ft 454 kts 221°
2026-05-07 09:04 55.79706 17.26682 40042 ft 455 kts 214°
2026-05-07 09:05 55.74003 17.21776 40041 ft 458 kts 201°
2026-05-07 09:05 55.67927 17.18234 40036 ft 459 kts 199°
2026-05-07 09:06 55.61887 17.14576 40033 ft 458 kts 203°
2026-05-07 09:06 55.55972 17.10375 40037 ft 458 kts 204°
2026-05-07 09:07 55.50086 17.06056 40033 ft 458 kts 204°
2026-05-07 09:07 55.44208 17.01736 40036 ft 458 kts 204°
2026-05-07 09:08 55.38317 16.97433 40027 ft 458 kts 204°
2026-05-07 09:08 55.32468 16.93184 40033 ft 458 kts 204°
2026-05-07 09:09 55.26533 16.88890 40036 ft 458 kts 204°
2026-05-07 09:09 55.20637 16.84637 40030 ft 458 kts 204°
2026-05-07 09:10 55.14733 16.80392 40031 ft 458 kts 204°
2026-05-07 09:10 55.08832 16.76162 40025 ft 459 kts 204°
2026-05-07 09:11 55.02923 16.71940 40022 ft 459 kts 204°
2026-05-07 09:11 54.97003 16.67724 40040 ft 459 kts 204°
2026-05-07 09:12 54.91132 16.63555 40042 ft 459 kts 204°
2026-05-07 09:12 54.85222 16.59373 40030 ft 459 kts 204°
2026-05-07 09:13 54.79307 16.55200 40023 ft 459 kts 204°
2026-05-07 09:13 54.73387 16.51037 40024 ft 459 kts 204°
2026-05-07 09:14 54.67471 16.46890 40036 ft 459 kts 204°
2026-05-07 09:14 54.61548 16.42751 40032 ft 460 kts 203°
2026-05-07 09:15 54.55617 16.38619 40026 ft 460 kts 203°
2026-05-07 09:15 54.49678 16.34495 40025 ft 460 kts 203°
2026-05-07 09:16 54.43737 16.30383 40024 ft 460 kts 203°
2026-05-07 09:16 54.37802 16.26286 40023 ft 460 kts 203°
2026-05-07 09:17 54.31850 16.22192 40021 ft 461 kts 203°
2026-05-07 09:17 54.26863 16.18772 40020 ft 461 kts 203°
2026-05-07 09:18 54.20913 16.14702 40020 ft 461 kts 203°
2026-05-07 09:18 54.14958 16.10641 40017 ft 461 kts 203°
2026-05-07 09:19 54.08993 16.06586 40017 ft 461 kts 203°
2026-05-07 09:19 54.03071 16.02573 40015 ft 461 kts 203°
2026-05-07 09:20 53.97106 15.98544 40012 ft 461 kts 203°
2026-05-07 09:20 53.91148 15.94531 40010 ft 461 kts 202°
2026-05-07 09:21 53.85199 15.90537 40008 ft 460 kts 202°
2026-05-07 09:21 53.79252 15.86556 40008 ft 459 kts 202°
2026-05-07 09:22 53.73306 15.82587 40010 ft 459 kts 202°
2026-05-07 09:22 53.67364 15.78634 40009 ft 459 kts 202°
2026-05-07 09:23 53.61421 15.74693 40005 ft 459 kts 202°
2026-05-07 09:23 53.55479 15.70763 40006 ft 459 kts 202°
2026-05-07 09:24 53.49525 15.66837 40006 ft 460 kts 202°
2026-05-07 09:24 53.43552 15.62912 40007 ft 461 kts 202°
2026-05-07 09:25 53.37580 15.58999 40004 ft 461 kts 202°
2026-05-07 09:25 53.31602 15.55094 40000 ft 461 kts 202°
2026-05-07 09:26 53.25618 15.51196 40003 ft 462 kts 202°
2026-05-07 09:26 53.19627 15.47306 40001 ft 462 kts 202°
2026-05-07 09:27 53.13638 15.43428 39997 ft 462 kts 202°
2026-05-07 09:28 53.04643 15.37626 39998 ft 462 kts 202°
2026-05-07 09:28 52.98644 15.33771 39995 ft 462 kts 201°
2026-05-07 09:29 52.92641 15.29925 39995 ft 463 kts 201°
2026-05-07 09:29 52.86634 15.26087 39996 ft 463 kts 201°
2026-05-07 09:30 52.80620 15.22257 39993 ft 463 kts 201°
2026-05-07 09:30 52.74604 15.18438 39988 ft 463 kts 201°
2026-05-07 09:31 52.68592 15.14631 39991 ft 463 kts 201°
2026-05-07 09:31 52.62585 15.10840 39990 ft 463 kts 201°
2026-05-07 09:32 52.56567 15.07052 39988 ft 463 kts 201°
2026-05-07 09:32 52.50549 15.03275 39988 ft 463 kts 201°
2026-05-07 09:33 52.44532 14.99510 39984 ft 463 kts 201°
2026-05-07 09:33 52.38514 14.95756 39985 ft 463 kts 201°
2026-05-07 09:34 52.32540 14.92040 39982 ft 463 kts 201°
2026-05-07 09:34 52.26519 14.88306 39982 ft 463 kts 201°
2026-05-07 09:35 52.20499 14.84583 39980 ft 462 kts 201°
2026-05-07 09:35 52.14481 14.80872 39980 ft 462 kts 201°
2026-05-07 09:36 52.08464 14.77172 39976 ft 462 kts 201°
2026-05-07 09:36 52.02685 14.72613 39974 ft 462 kts 209°
2026-05-07 09:37 51.97090 14.67473 39971 ft 462 kts 210°
2026-05-07 09:37 51.91520 14.62249 39971 ft 463 kts 210°
2026-05-07 09:38 51.85943 14.57041 39976 ft 463 kts 210°
2026-05-07 09:38 51.80355 14.51862 39967 ft 464 kts 210°
2026-05-07 09:39 51.74737 14.46681 39968 ft 465 kts 210°
2026-05-07 09:39 51.69119 14.41515 39967 ft 465 kts 210°
2026-05-07 09:40 51.63496 14.36359 39957 ft 465 kts 210°
2026-05-07 09:40 51.57871 14.31214 39960 ft 466 kts 210°
2026-05-07 09:41 51.52228 14.26068 39960 ft 466 kts 210°
2026-05-07 09:41 51.46514 14.21138 39963 ft 467 kts 207°
2026-05-07 09:42 51.40664 14.16615 39955 ft 467 kts 206°
2026-05-07 09:42 51.34821 14.12114 39952 ft 465 kts 206°
2026-05-07 09:43 51.29006 14.07565 39952 ft 465 kts 206°
2026-05-07 09:43 51.23198 14.02994 39941 ft 465 kts 206°
2026-05-07 09:44 51.17389 13.98427 39942 ft 465 kts 206°
2026-05-07 09:44 51.11629 13.93916 39939 ft 464 kts 206°
2026-05-07 09:45 51.05835 13.89393 39937 ft 464 kts 206°
2026-05-07 09:45 51.00032 13.84877 39938 ft 464 kts 206°
2026-05-07 09:46 50.94233 13.80375 39940 ft 465 kts 206°
2026-05-07 09:46 50.88418 13.75875 39934 ft 466 kts 206°
2026-05-07 09:47 50.82594 13.71379 39940 ft 466 kts 206°
2026-05-07 09:47 50.76769 13.66896 39927 ft 466 kts 206°
2026-05-07 09:48 50.70856 13.62682 39926 ft 468 kts 199°
2026-05-07 09:48 50.64668 13.59463 39925 ft 469 kts 198°
2026-05-07 09:49 50.58440 13.56438 39921 ft 469 kts 198°
2026-05-07 09:49 50.52197 13.53438 39918 ft 469 kts 198°
2026-05-07 09:50 50.45953 13.50425 39918 ft 470 kts 198°
2026-05-07 09:50 50.39709 13.47409 39920 ft 470 kts 198°
2026-05-07 09:51 50.33462 13.44396 39919 ft 470 kts 198°
2026-05-07 09:51 50.27212 13.41390 39923 ft 470 kts 198°
2026-05-07 09:52 50.20966 13.38395 39923 ft 470 kts 198°
2026-05-07 09:52 50.14717 13.35407 39935 ft 470 kts 198°
2026-05-07 09:53 50.08468 13.32427 39939 ft 470 kts 198°
2026-05-07 09:53 50.02236 13.29367 39943 ft 469 kts 199°
2026-05-07 09:54 49.96032 13.26261 39945 ft 469 kts 199°
2026-05-07 09:54 49.89816 13.23167 39959 ft 469 kts 199°
2026-05-07 09:55 49.83605 13.20097 39960 ft 468 kts 199°
2026-05-07 09:55 49.77402 13.17045 39963 ft 468 kts 199°
2026-05-07 09:56 49.71236 13.14020 39965 ft 468 kts 199°
2026-05-07 09:56 49.64995 13.10966 39956 ft 468 kts 199°
2026-05-07 09:57 49.58827 13.07955 39958 ft 468 kts 199°
2026-05-07 09:57 49.52613 13.04930 39960 ft 468 kts 199°
2026-05-07 09:58 49.46402 13.01913 39962 ft 468 kts 199°
2026-05-07 09:58 49.40294 12.98486 39969 ft 466 kts 205°
2026-05-07 09:59 49.34408 12.94322 39811 ft 465 kts 206°
2026-05-07 09:59 49.31485 12.92190 39612 ft 466 kts 207°
2026-05-07 09:59 49.28566 12.90049 39380 ft 466 kts 207°
2026-05-07 09:59 49.25638 12.87905 39150 ft 466 kts 207°
2026-05-07 10:00 49.22709 12.85767 38950 ft 465 kts 207°
2026-05-07 10:00 49.19805 12.83650 38726 ft 462 kts 207°
2026-05-07 10:00 49.16909 12.81546 38476 ft 460 kts 207°
2026-05-07 10:00 49.14015 12.79450 38205 ft 459 kts 207°
2026-05-07 10:01 49.11135 12.77368 37947 ft 458 kts 207°
2026-05-07 10:01 49.08257 12.75291 37679 ft 457 kts 207°
2026-05-07 10:01 49.05385 12.73216 37405 ft 456 kts 206°
2026-05-07 10:01 49.02515 12.71149 37158 ft 455 kts 206°
2026-05-07 10:02 48.99664 12.69102 36917 ft 452 kts 206°
2026-05-07 10:02 48.96821 12.67065 36655 ft 451 kts 206°
2026-05-07 10:02 48.93987 12.65037 36338 ft 449 kts 206°
2026-05-07 10:02 48.91173 12.63025 35813 ft 445 kts 206°
2026-05-07 10:03 48.88382 12.61027 35295 ft 441 kts 206°
2026-05-07 10:03 48.86549 12.59720 34971 ft 438 kts 206°
2026-05-07 10:03 48.83805 12.57769 34487 ft 434 kts 206°
2026-05-07 10:03 48.81085 12.55839 33978 ft 430 kts 205°
2026-05-07 10:04 48.78393 12.53933 33441 ft 425 kts 205°
2026-05-07 10:04 48.75674 12.52219 32948 ft 420 kts 201°
2026-05-07 10:04 48.72951 12.50682 32463 ft 415 kts 201°
2026-05-07 10:04 48.70248 12.49201 31998 ft 411 kts 200°
2026-05-07 10:05 48.67575 12.47757 31527 ft 406 kts 200°
2026-05-07 10:05 48.65035 12.45972 31059 ft 401 kts 210°
2026-05-07 10:05 48.62816 12.43463 30605 ft 398 kts 222°
2026-05-07 10:05 48.61052 12.40260 30169 ft 397 kts 234°
2026-05-07 10:06 48.59865 12.36510 29642 ft 399 kts 248°
2026-05-07 10:06 48.59334 12.32399 29177 ft 401 kts 261°
2026-05-07 10:06 48.59488 12.28177 28716 ft 404 kts 274°
2026-05-07 10:06 48.59765 12.24014 28247 ft 393 kts 264°
2026-05-07 10:07 48.59403 12.20026 27826 ft 381 kts 252°
2026-05-07 10:07 48.58859 12.16119 27361 ft 379 kts 258°
2026-05-07 10:07 48.58526 12.12193 26918 ft 376 kts 260°
2026-05-07 10:07 48.58236 12.08286 26478 ft 373 kts 261°
2026-05-07 10:08 48.57951 12.04413 26041 ft 369 kts 261°
2026-05-07 10:08 48.57667 12.00572 25609 ft 367 kts 261°
2026-05-07 10:08 48.57383 11.96761 25161 ft 364 kts 261°
2026-05-07 10:08 48.57100 11.92990 24735 ft 361 kts 261°
2026-05-07 10:09 48.56816 11.89229 24305 ft 359 kts 261°
2026-05-07 10:09 48.56533 11.85493 23846 ft 357 kts 261°
2026-05-07 10:09 48.56251 11.81790 23393 ft 355 kts 261°
2026-05-07 10:09 48.55970 11.78106 22934 ft 351 kts 261°
2026-05-07 10:10 48.55690 11.74468 22494 ft 347 kts 263°
2026-05-07 10:10 48.55412 11.70863 22058 ft 345 kts 263°
2026-05-07 10:10 48.55134 11.67275 21622 ft 343 kts 263°
2026-05-07 10:10 48.54857 11.63713 21194 ft 341 kts 263°
2026-05-07 10:11 48.54580 11.60162 20756 ft 339 kts 263°
2026-05-07 10:11 48.54256 11.56648 20330 ft 337 kts 258°
2026-05-07 10:11 48.53393 11.53400 19923 ft 334 kts 237°
2026-05-07 10:11 48.51769 11.50927 19499 ft 335 kts 214°
2026-05-07 10:12 48.49617 11.49628 19052 ft 337 kts 192°
2026-05-07 10:12 48.47273 11.49728 18635 ft 342 kts 169°
2026-05-07 10:12 48.45059 11.51066 18190 ft 343 kts 159°
2026-05-07 10:12 48.42812 11.52147 17708 ft 338 kts 168°
2026-05-07 10:13 48.40660 11.53480 17262 ft 342 kts 151°
2026-05-07 10:13 48.38882 11.55934 16816 ft 347 kts 128°
2026-05-07 10:13 48.37866 11.59223 16366 ft 350 kts 105°
2026-05-07 10:13 48.37746 11.62817 15924 ft 352 kts 82°
2026-05-07 10:14 48.38541 11.66266 15458 ft 350 kts 59°
2026-05-07 10:14 48.39939 11.69318 15010 ft 348 kts 52°
2026-05-07 10:14 48.41385 11.72176 14569 ft 348 kts 52°
2026-05-07 10:14 48.42846 11.75076 14088 ft 348 kts 52°
2026-05-07 10:15 48.44249 11.78032 13624 ft 346 kts 59°
2026-05-07 10:15 48.45132 11.81363 13180 ft 341 kts 79°
2026-05-07 10:15 48.45482 11.84873 12738 ft 338 kts 85°
2026-05-07 10:15 48.45736 11.88384 12307 ft 336 kts 85°
2026-05-07 10:16 48.45986 11.91875 11878 ft 335 kts 85°
2026-05-07 10:16 48.46240 11.95354 11449 ft 333 kts 85°
2026-05-07 10:16 48.46495 11.98816 11014 ft 331 kts 85°
2026-05-07 10:16 48.46749 12.02239 10672 ft 326 kts 85°
2026-05-07 10:17 48.46997 12.05580 10522 ft 314 kts 85°
2026-05-07 10:17 48.47234 12.08785 10389 ft 302 kts 85°
2026-05-07 10:17 48.47463 12.11887 10190 ft 296 kts 85°
2026-05-07 10:17 48.47689 12.14962 9851 ft 296 kts 85°
2026-05-07 10:18 48.47918 12.18100 9507 ft 306 kts 85°
2026-05-07 10:18 48.48150 12.21293 9248 ft 307 kts 85°
2026-05-07 10:18 48.48383 12.24488 8852 ft 306 kts 85°
2026-05-07 10:18 48.48614 12.27671 8424 ft 304 kts 85°
2026-05-07 10:19 48.48843 12.30829 8091 ft 302 kts 85°
2026-05-07 10:19 48.49068 12.33957 7738 ft 299 kts 85°
2026-05-07 10:19 48.49291 12.37067 7414 ft 298 kts 85°
2026-05-07 10:19 48.49512 12.40168 7170 ft 297 kts 85°
2026-05-07 10:20 48.49713 12.43246 6970 ft 294 kts 85°
2026-05-07 10:20 48.49908 12.46320 6717 ft 295 kts 85°
2026-05-07 10:20 48.50105 12.49406 6468 ft 296 kts 85°
2026-05-07 10:20 48.50238 12.52488 6238 ft 294 kts 94°
2026-05-07 10:21 48.49729 12.55420 6009 ft 288 kts 121°
2026-05-07 10:21 48.48531 12.57765 5695 ft 281 kts 144°
2026-05-07 10:21 48.46839 12.59059 5289 ft 269 kts 171°
2026-05-07 10:21 48.45037 12.59021 5013 ft 256 kts 200°
2026-05-07 10:22 48.43370 12.58105 4963 ft 255 kts 208°
2026-05-07 10:22 48.41903 12.56655 4968 ft 252 kts 226°
2026-05-07 10:22 48.40934 12.54509 4972 ft 249 kts 250°
2026-05-07 10:22 48.40602 12.51958 4969 ft 248 kts 264°
2026-05-07 10:23 48.40483 12.49364 4967 ft 249 kts 266°
2026-05-07 10:23 48.40383 12.46755 4969 ft 249 kts 266°
2026-05-07 10:23 48.40279 12.44159 4971 ft 248 kts 266°
2026-05-07 10:23 48.40172 12.41571 4972 ft 248 kts 266°
2026-05-07 10:24 48.40063 12.38986 4978 ft 247 kts 265°
2026-05-07 10:24 48.39951 12.36409 4969 ft 246 kts 265°
2026-05-07 10:24 48.39839 12.33842 4974 ft 245 kts 266°
2026-05-07 10:24 48.39727 12.31283 4974 ft 246 kts 265°
2026-05-07 10:25 48.39650 12.28706 4966 ft 248 kts 272°
2026-05-07 10:25 48.39819 12.26124 4972 ft 248 kts 273°
2026-05-07 10:25 48.39836 12.23536 4975 ft 246 kts 266°
2026-05-07 10:25 48.39685 12.20992 4965 ft 239 kts 263°
2026-05-07 10:26 48.39493 12.18603 4972 ft 221 kts 262°
2026-05-07 10:26 48.39313 12.16398 4966 ft 205 kts 262°
2026-05-07 10:26 48.39147 12.14357 4967 ft 188 kts 263°
2026-05-07 10:26 48.38994 12.12444 4987 ft 183 kts 263°
2026-05-07 10:27 48.38846 12.10530 4986 ft 184 kts 263°
2026-05-07 10:27 48.38705 12.08631 4968 ft 181 kts 263°
2026-05-07 10:27 48.38572 12.06790 4813 ft 172 kts 263°
2026-05-07 10:27 48.38440 12.05022 4567 ft 168 kts 263°
2026-05-07 10:28 48.38307 12.03306 4309 ft 163 kts 263°
2026-05-07 10:28 48.38178 12.01628 4059 ft 159 kts 264°
2026-05-07 10:28 48.38056 12.00031 3856 ft 153 kts 263°
2026-05-07 10:28 48.37936 11.98464 3639 ft 145 kts 263°
2026-05-07 10:29 48.37825 11.97031 3462 ft 135 kts 265°
2026-05-07 10:29 48.37722 11.95677 3297 ft 128 kts 264°
2026-05-07 10:29 48.37622 11.94361 3133 ft 127 kts 265°
2026-05-07 10:30 48.37422 11.91734 2793 ft 126 kts 265°
2026-05-07 10:30 48.37322 11.90418 2607 ft 127 kts 264°
2026-05-07 10:30 48.37222 11.89102 2439 ft 128 kts 263°
2026-05-07 10:30 48.37119 11.87769 2242 ft 128 kts 263°
2026-05-07 10:31 48.37018 11.86437 2069 ft 130 kts 264°
2026-05-07 10:31 48.36917 11.85077 1894 ft 133 kts 263°
2026-05-07 10:31 48.36816 11.83697 1731 ft 133 kts 264°
2026-05-07 10:31 48.36701 11.82331 1560 ft 132 kts 263°
2026-05-07 10:32 48.36599 11.80996 1480 ft 118 kts 264°
2026-05-07 10:32 48.36538 11.80138 1476 ft 50 kts 264°
2026-05-07 10:32 48.36499 11.79648 1482 ft 44 kts 263°
2026-05-07 10:32 48.36465 11.79204 1492 ft 42 kts 263°
2026-05-07 10:33 48.36431 11.78763 1492 ft 42 kts 263°
2026-05-07 10:33 48.36397 11.78322 1492 ft 43 kts 259°
2026-05-07 10:33 48.36282 11.77979 1477 ft 19 kts 233°
2026-05-07 10:33 48.36204 11.77819 1476 ft 19 kts 234°
2026-05-07 10:34 48.36153 11.77717 1478 ft 0 kts 227°
2026-05-07 10:34 48.36150 11.77713 1491 ft 4 kts 227°
2026-05-07 10:34 48.36095 11.77661 1480 ft 12 kts 189°
2026-05-07 10:35 48.36009 11.77667 1481 ft 13 kts 172°
2026-05-07 10:35 48.35914 11.77682 1478 ft 13 kts 172°
2026-05-07 10:35 48.35819 11.77702 1479 ft 15 kts 173°
2026-05-07 10:35 48.35709 11.77721 1491 ft 17 kts 173°
2026-05-07 10:36 48.35580 11.77743 1491 ft 19 kts 173°
2026-05-07 10:36 48.35442 11.77767 1477 ft 19 kts 173°
2026-05-07 10:36 48.35302 11.77791 1490 ft 20 kts 174°
2026-05-07 10:36 48.35188 11.77841 1481 ft 16 kts 122°
2026-05-07 10:37 48.35193 11.78017 1484 ft 18 kts 82°
2026-05-07 10:37 48.35159 11.78181 1482 ft 18 kts 158°
2026-05-07 10:37 48.35134 11.78194 1479 ft 4 kts 157°
2026-05-07 10:37 48.35116 11.78273 1476 ft 8 kts 79°
2026-05-07 10:38 48.35118 11.78298 1492 ft 0 kts 81°
2026-05-07 10:38 48.35119 11.78301 1492 ft 0 kts 81°
2026-05-07 10:38 48.35119 11.78302 1492 ft 2 kts 81°
2026-05-07 10:39 48.35122 11.78338 1481 ft 1 kts 82°
2026-05-07 10:39 48.35123 11.78341 1487 ft 2 kts 82°
2026-05-07 10:39 48.35123 11.78343 1492 ft 0 kts 82°
2026-05-07 10:40 48.35123 11.78347 1492 ft 0 kts 82°